DW4360 Weather Reports


time (UTC)temp
F
wind
direction
speed
knots
gust
knots
rain 1hr
in
rain 24hr
in
rain mn
in
humidity
%
barometer
mb
20260507103027 54 315 3.5 0.0 0.00 0.00 0.00 75 1020.0
20260507101025 54 321 0.0 0.0 0.00 0.00 0.00 76 1020.1
20260507093021 55 308 1.7 0.0 0.00 0.00 0.00 75 1020.4
20260507092020 55 331 0.0 0.0 0.00 0.00 0.00 74 1020.5
20260507091019 55 319 5.2 0.0 0.00 0.00 0.00 74 1020.5
20260507090018 55 321 0.0 0.0 0.00 0.00 0.00 74 1020.5
20260507085017 55 327 0.0 0.0 0.00 0.00 0.00 74 1020.5
20260507083015 55 325 0.0 0.0 0.00 0.00 0.00 74 1020.5
20260507082014 55 323 0.0 0.0 0.00 0.00 0.00 75 1020.6
20260507081013 55 325 0.0 0.0 0.00 0.00 0.00 75 1020.5
20260507075011 56 321 0.0 0.0 0.00 0.00 0.00 76 1020.5
20260507074010 56 318 0.9 0.0 0.00 0.00 0.00 77 1020.5
20260507073009 56 330 0.0 0.0 0.00 0.00 0.00 76 1020.5
20260507072008 56 317 0.0 0.0 0.00 0.00 0.00 76 1020.4
20260507071007 56 327 0.0 0.0 0.00 0.00 0.00 76 1020.3
20260507070010 56 313 0.0 0.0 0.00 0.00 0.00 76 1020.3
20260507065005 56 327 0.0 0.0 0.00 0.00 0.00 76 1020.3
20260507064004 56 316 0.0 0.0 0.00 0.00 0.00 75 1020.4
20260507063003 56 327 1.7 0.0 0.00 0.00 0.00 75 1020.4
20260507062002 56 323 3.5 0.0 0.00 0.00 0.00 75 1020.5
20260507061001 57 317 0.0 0.0 0.00 0.00 0.00 76 1020.4
20260507055959 57 316 0.9 0.0 0.00 0.00 0.00 76 1020.4
20260507054959 57 309 0.0 0.0 0.00 0.00 0.00 76 1020.4
20260507053957 57 360 0.0 0.0 0.00 0.00 0.00 76 1020.4
20260507052956 57 348 0.0 0.0 0.00 0.00 0.00 76 1020.3
20260507051955 57 313 0.0 0.0 0.00 0.00 0.00 75 1020.3
20260507050955 58 327 0.0 0.0 0.00 0.00 0.00 75 1020.4
20260507045953 58 314 0.0 0.0 0.00 0.00 0.00 74 1020.3
20260507044953 58 315 0.0 0.0 0.00 0.00 0.00 74 1020.3
20260507043951 59 317 0.0 0.0 0.00 0.00 0.00 74 1020.4
20260507042951 59 319 0.0 0.0 0.00 0.00 0.00 74 1020.3
20260507041950 59 325 5.2 0.0 0.00 0.00 0.00 73 1020.2
20260507040949 59 320 0.0 0.0 0.00 0.00 0.00 73 1020.1
20260507035947 60 316 0.0 0.0 0.00 0.00 0.00 73 1020.0
20260507034947 60 309 0.9 0.0 0.00 0.00 0.00 73 1019.8
20260507033946 60 318 0.0 0.0 0.00 0.00 0.00 72 1019.6
20260507032945 61 324 0.0 0.0 0.00 0.00 0.00 72 1019.6
20260507031943 61 331 0.0 0.0 0.00 0.00 0.00 72 1019.4
20260507024941 62 333 1.7 0.0 0.00 0.00 0.00 72 1019.1
20260507023940 62 321 0.0 0.0 0.00 0.00 0.00 72 1018.9
20260507022938 62 313 1.7 0.0 0.00 0.00 0.00 72 1018.9
20260507021937 63 327 7.8 0.0 0.00 0.00 0.00 71 1018.9
20260507020937 63 314 3.5 0.0 0.00 0.00 0.00 70 1018.9
20260507015935 64 310 1.7 0.0 0.00 0.00 0.00 69 1018.9
20260507014934 64 316 6.1 0.0 0.00 0.00 0.00 69 1019.0
20260507013933 64 335 0.0 0.0 0.00 0.00 0.00 68 1019.0
20260507012933 65 309 2.6 0.0 0.00 0.00 0.00 67 1019.0
20260507011931 66 323 2.6 0.0 0.00 0.00 0.00 66 1019.0
20260507010930 67 341 0.9 0.0 0.00 0.00 0.00 65 1018.9
20260507003927 69 305 6.1 0.0 0.00 0.00 0.00 62 1018.8
20260507002926 69 312 5.2 0.0 0.00 0.00 0.00 63 1018.8
20260507001925 69 321 0.0 0.0 0.00 0.00 0.00 65 1018.7
20260507000924 70 320 5.2 0.0 0.00 0.00 0.00 65 1018.6
20260506234922 70 319 0.0 0.0 0.00 0.00 0.00 65 1018.6
20260506233921 70 317 0.0 0.0 0.00 0.00 0.00 63 1018.5
20260506232920 71 317 0.0 0.0 0.00 0.00 0.00 60 1018.5
20260506230918 72 323 0.0 0.0 0.00 0.00 0.00 60 1018.7
20260506225917 73 83 0.0 0.0 0.00 0.00 0.00 61 1018.7
20260506224916 73 83 0.0 0.0 0.00 0.00 0.00 60 1018.9
20260506223915 72 307 0.0 0.0 0.00 0.00 0.00 60 1019.0
20260506222914 71 71 0.0 0.0 0.00 0.00 0.00 63 1019.1
20260506221913 71 223 0.0 0.0 0.00 0.00 0.00 63 1019.2
20260506215911 71 257 0.0 0.0 0.00 0.00 0.00 62 1019.3
20260506214910 70 255 0.0 0.0 0.00 0.00 0.00 62 1019.2
20260506213909 70 244 0.0 0.0 0.00 0.00 0.00 65 1019.1
20260506212908 69 192 1.7 0.0 0.00 0.00 0.00 69 1019.3
20260506211907 68 198 0.0 0.0 0.00 0.00 0.00 69 1019.5
20260506205905 67 198 0.0 0.0 0.00 0.00 0.00 69 1019.7
20260506204904 67 198 0.0 0.0 0.00 0.00 0.00 70 1019.6
20260506203903 66 198 0.0 0.0 0.00 0.00 0.00 72 1019.6
20260506202902 66 198 0.0 0.0 0.00 0.00 0.00 72 1019.6
20260506201901 66 198 0.0 0.0 0.00 0.00 0.00 72 1019.6
20260506200900 65 198 0.0 0.0 0.00 0.00 0.00 74 1019.7
20260506195858 64 278 0.0 0.0 0.00 0.00 0.00 75 1019.7
20260506194858 64 277 0.0 0.0 0.00 0.00 0.00 77 1019.9
20260506193857 64 268 2.6 0.0 0.00 0.00 0.00 76 1020.0
20260506192856 63 266 0.0 0.0 0.00 0.00 0.00 76 1020.1
20260506191855 63 271 0.0 0.0 0.00 0.00 0.00 77 1020.0
20260506190854 63 271 0.0 0.0 0.00 0.00 0.00 77 1019.9
20260506185852 62 271 0.0 0.0 0.00 0.00 0.00 77 1020.0
20260506184851 62 271 0.0 0.0 0.00 0.00 0.00 78 1019.9
20260506183850 62 292 0.0 0.0 0.00 0.00 0.00 79 1019.9
20260506182850 61 292 0.0 0.0 0.00 0.00 0.00 79 1019.9
20260506181849 61 345 0.0 0.0 0.00 0.00 0.00 80 1020.0
20260506180847 61 345 0.0 0.0 0.00 0.00 0.00 81 1019.9
20260506174845 60 345 0.0 0.0 0.00 0.00 0.00 81 1020.0
20260506173844 60 345 0.0 0.0 0.00 0.00 0.00 80 1020.0
20260506172843 60 345 0.0 0.0 0.00 0.00 0.00 81 1019.8
20260506171843 59 345 0.0 0.0 0.00 0.00 0.00 81 1019.7
20260506170841 59 345 0.0 0.0 0.00 0.00 0.00 80 1019.7
20260506165840 59 345 0.0 0.0 0.00 0.00 0.00 80 1019.8
20260506164839 59 130 0.0 0.0 0.00 0.00 0.00 81 1019.8
20260506163839 59 130 0.0 0.0 0.00 0.00 0.00 81 1019.8
20260506161837 58 132 0.0 0.0 0.00 0.00 0.00 83 1019.6
20260506160836 58 133 0.0 0.0 0.00 0.00 0.00 83 1019.6
20260506154833 58 132 0.0 0.0 0.00 0.00 0.00 84 1019.3
20260506153832 57 133 0.0 0.0 0.00 0.00 0.00 84 1019.0
20260506152831 57 321 0.0 0.0 0.00 0.00 0.00 84 1019.6
20260506151831 57 321 0.0 0.0 0.00 0.00 0.00 84 1019.8
20260506150829 57 321 0.0 0.0 0.00 0.00 0.00 84 1019.8
20260506144827 57 318 0.0 0.0 0.00 0.00 0.00 84 1019.5
20260506142825 57 323 0.0 0.0 0.00 0.00 0.00 85 1019.3
20260506141824 57 323 0.0 0.0 0.00 0.00 0.00 85 1019.0
20260506140823 57 324 0.0 0.0 0.00 0.00 0.00 85 1018.7
20260506135822 57 323 0.0 0.0 0.00 0.00 0.00 85 1018.9
20260506134821 57 323 0.0 0.0 0.00 0.00 0.00 85 1018.7
20260506133820 57 323 0.0 0.0 0.00 0.00 0.00 85 1018.6
20260506132819 57 323 0.0 0.0 0.00 0.00 0.00 86 1018.7
20260506131818 57 323 0.0 0.0 0.00 0.00 0.00 85 1018.5
20260506130817 57 323 0.0 0.0 0.00 0.00 0.00 85 1018.3
20260506124815 57 323 0.0 0.0 0.00 0.00 0.00 85 1018.2
20260506123814 57 323 0.0 0.0 0.00 0.00 0.00 85 1018.1
20260506122813 57 323 0.0 0.0 0.00 0.00 0.00 84 1018.2
20260506121812 57 324 0.0 0.0 0.00 0.00 0.00 84 1018.3
20260506120811 57 324 0.0 0.0 0.00 0.00 0.00 84 1018.2
20260506114809 57 323 3.5 0.0 0.00 0.00 0.00 84 1018.0
20260506113808 57 315 0.0 0.0 0.00 0.00 0.00 83 1017.9
20260506111806 57 323 0.0 0.0 0.00 0.00 0.00 83 1017.8
20260506110805 58 319 0.0 0.0 0.00 0.00 0.00 82 1017.6
20260506105804 58 316 1.7 0.0 0.00 0.00 0.00 82 1017.5